SCP
0 0 0 0 0 0 0 0 0 0 0 0 0 0 0 0 0 0 0 0 0 0 0 0 0 0 0 0 0 0 0 0 0 0 0 0 0 0 0 0 0 0 0
0 0 0 0 0 0 0 0 0 0 0 0 0 0 0 0 0 0 0 0 0 0 0 0 0 0 0 0 0 0 0 0 0 0 0 0 0 0 0 0 0 0 0
0 0 0 0 0 0 0 0 0 0 0 0 0 0 0 0 0 0 0 0 0 0 0 0 0 0 0 0 0 0 0 0 0 0 0 0 0 0 0 0 0 0 0
0 0 0 0 0 0 0 0 0 0 0 0 0 0 0 0 0 0 0 0 0 0 0 0 0 0 0 0 0 0 0 0 0 0 0 0 0 0 0 0 0 0 0
0 0 0 0 0 0 0 0 0 0 0 0 0 0 0 0 0 0 0 0 0 0 0 0 0 0 0 0 0 0 0 0 0 0 0 0 0 0 0 0 0 0 0
0 0 0 0 0 0 0 0 0 0 0 0 0 0 0 0 0 0 0 0 0 0 0 0 0 0 0 0 0 0 0 0 0 0 0 0 0 0 0 0 0 0 0
0 0 0 0 0 0 0 0 0 0 0 0 0 0 0 0 0 0 0 0 0 0 0 0 0 0 0 0 0 0 0 0 0 0 0 0 0 0 0 0 0 0 0
0 0 0 0 0 0 0 0 0 0 0 0 0 0 0 0 0 0 0 0 0 0 0 0 0 0 0 0 0 0 0 0 0 0 0 0 0 0 0 0 0 0 0
0 0 0 0 0 0 0 0 0 0 0 0 0 0 0 0 0 0 0 0 0 0 0 0 0 0 0 0 0 0 0 0 0 0 0 0 0 0 0 0 0 0 0
0 0 0 0 0 0 0 0 0 0 0 0 0 0 0 0 0 0 0 0 0 0 0 0 0 0 0 0 0 0 0 0 0 0 0 0 0 0 0 0 0 0 0
0 0 0 0 0 0 0 0 0 0 0 0 0 0 0 0 0 0 0 0 0 0 0 0 0 0 0 0 0 0 -0 0 0 0 0 0 0 0 0 0 0 0 0
0 0 0 0 0 0 0 0 0 0 0 0 0 0 0 0 0 0 0 0 0 0 0 0 0 0 0 0 -0 -0 0 0 0 0 0 0 0 0 0 0 0 0 0
0 0 0 0 0 0 0 0 0 0 0 0 0 0 0 0 0 0 0 0 0 0 0 0 0 -0 -0 0 0 0 0 0 0 0 0 0 0 0 0 0 0 0 0
0 0 0 0 0 0 0 0 0 0 0 0 0 0 0 0 0 0 0 0 0 0 0 0 0 0 0 0 0 0 0 0 0 0 0 0 0 0 0 0 0 0 0
0 0 0 0 0 0 0 0 0 0 0 0 0 0 0 0 0 0 0 0 0 0 0 0 0 0 0 0 0 0 0 0 0 0 0 1 1 0 0 0 0 0 0
0 0 0 0 0 0 0 0 0 0 0 0 0 0 0 0 0 0 0 0 0 0 0 0 0 0 0 0 0 0 0 0 0 0 0 0 0 0 0 0 0 0 0
0 0 0 0 0 0 0 0 0 0 0 0 0 0 0 0 0 0 0 0 0 0 0 0 0 0 0 0 0 0 0 0 0 0 0 0 0 0 0 0 0 0 0
0 0 0 0 0 0 0 0 0 0 0 0 0 0 0 0 0 0 0 0 0 0 0 0 0 0 0 0 0 0 0 0 0 0 0 0 0 0 0 0 0 0 0
0 0 1 1 1 1 1 1 0 0 0 0 0 0 0 0 0 0 0 0 0 0 0 0 0 0 0 0 0 0 0 0 0 0 0 0 0 0 0 0 0 0 0
0 0 1 1 1 1 1 1 1 1 1 0 0 0 0 0 0 0 0 0 0 0 0 0 0 0 0 0 0 0 0 0 0 0 0 0 0 0 0 0 0 0 0
0 1 1 1 1 1 1 1 1 1 1 1 1 1 0 0 0 0 0 0 0 0 0 0 0 0 0 0 0 0 0 0 0 0 0 0 0 0 0 0 0 0 0
1 1 1 1 1 1 1 1 1 1 1 1 1 1 1 1 0 0 0 0 0 0 0 0 0 0 0 0 0 0 0 0 0 0 0 0 0 0 0 0 0 0 0
1 1 1 1 1 1 1 1 1 1 1 1 1 1 1 1 0 0 0 0 0 -0 0 0 0 0 0 0 0 0 0 0 0 0 0 0 0 0 0 0 0 0 0
1 1 1 1 1 1 1 1 1 1 1 1 1 1 1 1 0 0 0 0 0 0 0 0 0 0 0 0 0 0 0 0 0 0 0 0 0 0 0 0 0 0 0
1 1 1 1 1 1 1 1 1 1 1 1 1 1 1 0 0 0 0 0 0 0 0 0 0 0 0 0 0 0 0 0 0 0 0 0 0 0 0 0 0 -0 0
1 1 1 1 1 1 1 1 1 1 1 1 1 0 0 0 0 0 0 0 0 0 0 0 0 0 0 0 0 0 0 0 0 0 0 0 0 0 0 0 0 -0 0
Wind_Speed
10 14 14 15 14 14 13 13 14 14 12 11 10 10 9 9 8 8 7 7 8 8 7 7 14 8 4 4 5 4 4 7 8 7 6 5 6 4 4 4 1 4 7
13 14 15 14 14 14 14 14 14 14 13 11 9 9 9 8 9 9 7 9 9 9 8 10 11 8 5 4 4 4 4 5 6 5 3 4 4 4 4 3 4 7 7
13 13 14 13 14 14 14 15 14 14 13 11 9 9 8 7 8 9 8 9 9 8 7 8 6 8 7 5 4 4 4 5 4 3 2 3 5 4 3 4 6 7 7
12 11 13 12 12 13 13 14 14 14 13 12 10 9 8 7 8 9 9 10 10 10 8 8 5 8 9 8 7 7 7 6 5 1 4 1 2 6 6 6 8 7 7
11 10 12 12 11 11 12 13 13 13 13 12 10 9 8 8 8 9 9 10 10 9 8 8 6 8 8 9 8 8 8 7 5 3 3 3 2 6 6 6 7 7 6
10 9 12 10 11 10 10 11 12 13 13 13 11 9 8 8 8 8 9 9 9 9 8 7 7 6 6 8 7 8 8 6 2 4 5 5 4 6 5 5 5 6 6
10 9 11 9 10 10 10 11 12 13 13 12 11 9 8 8 8 8 8 9 9 8 9 6 4 4 6 7 7 8 8 6 4 4 5 6 7 7 6 5 4 4 5
9 9 10 10 10 10 10 11 12 11 11 11 11 10 8 8 8 9 9 9 8 7 8 7 5 9 8 6 7 7 8 7 3 4 5 6 7 8 7 5 4 4 5
8 8 9 9 10 10 10 11 12 12 12 11 11 9 8 8 9 9 10 9 8 8 8 8 9 10 8 7 7 6 7 7 5 3 2 3 6 7 8 7 5 5 5
9 8 9 10 10 10 9 11 11 12 12 11 11 10 8 9 10 11 10 9 9 9 8 9 9 9 8 7 7 5 1 3 1 1 1 4 4 5 6 6 5 5 4
9 8 8 9 9 9 10 11 11 11 11 11 10 10 9 8 9 9 10 10 11 10 9 10 10 9 7 7 5 1 6 0 1 2 4 4 2 3 4 4 4 4 3
11 9 8 8 9 9 7 9 8 9 9 8 7 8 6 6 5 8 12 10 11 11 10 10 7 6 5 3 5 6 1 3 3 3 6 7 4 2 1 2 2 2 2
10 9 8 8 8 8 6 6 6 6 5 6 7 7 5 6 6 7 8 8 9 9 8 8 7 3 2 3 2 3 5 4 4 4 7 7 6 5 3 3 3 2 3
11 10 10 9 8 8 6 5 4 5 6 5 6 7 5 4 6 6 5 6 5 4 4 3 3 4 4 5 6 6 7 5 6 5 8 10 8 6 6 6 6 5 4
11 11 11 10 9 8 7 6 6 6 6 5 5 7 7 5 6 7 6 5 4 3 4 5 5 5 5 7 7 8 9 10 10 7 8 16 15 11 9 9 9 8 8
12 12 11 10 9 9 8 7 6 6 6 6 6 7 7 6 6 7 8 7 7 5 4 5 6 6 5 6 7 8 9 9 10 9 7 11 18 17 14 12 11 10 9
10 11 11 10 10 10 10 9 7 5 6 6 7 8 8 7 7 7 8 8 7 6 5 4 6 5 5 6 6 6 7 8 8 10 8 7 8 14 18 18 16 13 11
9 9 10 9 11 11 10 9 7 7 6 5 5 6 8 9 9 8 8 8 7 6 6 6 5 5 6 5 4 5 5 6 7 8 8 8 6 5 10 16 18 17 14
10 10 10 10 10 10 10 8 7 7 7 5 5 5 7 9 9 8 7 8 9 7 7 8 7 6 5 5 5 4 5 5 6 6 9 9 7 6 6 8 12 16 16
9 9 8 7 8 8 8 6 4 4 5 6 7 8 9 8 10 8 7 9 9 7 6 7 8 7 6 5 5 4 4 4 5 5 8 7 7 8 7 6 4 7 12
7 7 7 7 6 6 5 7 6 6 4 6 7 10 10 9 7 4 6 9 9 8 9 7 6 7 7 6 6 5 4 4 5 3 4 5 6 6 7 6 4 4 5
5 6 7 8 9 8 7 7 5 5 6 8 8 8 8 7 5 3 7 7 10 10 8 7 8 6 6 7 7 6 5 6 5 4 3 3 5 4 5 6 6 6 5
5 6 6 9 10 10 8 6 5 5 4 7 8 8 10 11 8 5 6 6 8 10 9 10 9 11 9 9 8 6 4 3 7 5 6 4 3 3 3 4 5 6 5
6 6 7 7 8 9 9 8 8 6 6 7 6 7 10 13 12 10 11 11 10 10 10 9 12 11 11 9 9 8 4 3 5 6 6 5 5 4 4 2 2 3 4
7 6 6 7 7 7 8 7 7 6 5 3 3 5 7 9 12 13 13 10 11 11 11 10 10 11 11 10 11 9 7 5 5 4 7 8 6 5 4 3 2 1 3
7 6 6 6 7 7 7 7 7 6 5 4 4 4 3 4 7 12 13 11 8 10 11 8 9 11 10 12 11 10 9 9 7 6 4 8 7 7 6 4 3 2 2
Wind_Direction
154 148 162 153 149 149 149 145 144 142 139 133 133 142 146 156 152 141 125 95 89 97 107 93 89 89 89 99 117 126 116 121 120 112 104 106 110 105 89 114 259 79 86
147 148 155 156 149 146 149 153 154 147 144 141 140 142 141 145 139 128 112 91 80 74 76 81 86 99 96 97 117 127 106 102 112 108 115 139 120 91 74 80 27 78 95
143 146 155 159 152 149 151 155 160 152 152 150 150 141 142 142 142 137 122 105 103 102 95 87 99 112 106 100 107 110 96 74 69 68 259 220 121 109 109 111 90 99 103
140 150 149 157 154 151 155 158 161 157 159 156 153 148 151 146 136 131 116 106 100 100 100 92 79 81 86 87 83 83 81 71 58 335 251 10 61 107 112 112 102 107 113
137 147 134 153 151 154 155 160 160 158 160 154 150 157 157 150 140 130 119 110 105 102 100 93 80 88 86 80 81 83 80 72 63 330 15 30 345 90 102 111 113 109 96
135 142 127 155 153 158 155 157 154 155 157 151 155 159 152 146 135 134 126 113 105 103 102 96 91 102 101 89 83 77 70 57 47 61 44 39 36 61 78 81 92 106 100
137 137 134 156 155 158 155 152 153 158 155 152 155 152 150 148 137 128 125 113 108 110 114 114 117 124 119 95 76 63 54 28 24 49 60 53 55 61 67 76 90 100 97
133 140 135 147 152 155 152 149 151 155 153 150 151 145 143 139 131 120 116 113 112 117 123 119 113 118 114 93 69 56 45 2 22 54 35 60 50 55 61 70 84 87 82
137 146 140 150 150 156 152 152 156 154 151 147 142 139 136 132 125 115 113 117 122 130 126 111 111 117 107 87 65 52 47 0 353 32 11 72 59 51 52 56 65 73 74
152 160 156 155 160 158 157 159 161 157 150 144 139 136 134 134 133 128 128 123 129 135 128 121 116 112 98 83 70 52 355 250 14 346 344 49 37 50 52 52 55 71 84
164 170 167 157 157 159 166 158 163 155 149 147 143 141 157 152 157 149 109 121 129 124 123 123 117 113 123 111 94 194 250 96 26 11 40 33 13 41 45 43 48 63 85
171 173 172 161 161 162 174 156 168 160 165 156 154 153 165 147 125 113 117 132 126 117 119 118 126 166 196 133 150 202 140 60 38 29 45 14 1 2 22 26 20 51 71
167 164 172 170 169 170 169 157 176 157 171 162 163 161 169 145 146 141 139 154 144 153 144 150 175 167 76 85 93 86 86 82 61 32 46 21 25 36 42 42 29 30 64
166 167 168 178 172 175 165 175 173 159 177 173 171 164 172 169 165 150 166 151 147 152 146 139 117 96 79 76 81 84 87 81 73 50 53 42 43 57 60 60 54 48 51
173 174 172 179 178 170 178 174 170 171 180 166 185 180 183 181 179 162 166 157 148 169 148 145 142 120 94 70 70 72 74 81 85 74 55 48 44 51 60 62 64 63 62
182 181 173 177 178 171 177 177 182 176 182 169 192 194 194 182 183 183 163 159 168 174 161 147 127 124 117 99 80 74 75 74 82 87 75 57 46 41 45 57 65 70 70
188 184 176 178 178 174 178 181 181 185 181 191 195 196 198 183 188 189 164 178 167 157 150 137 140 134 122 115 106 89 78 76 73 74 69 60 56 46 39 38 42 52 59
190 191 185 183 185 180 180 182 175 181 181 207 211 201 201 195 189 190 175 182 173 166 155 154 163 153 142 138 128 101 87 76 79 76 73 70 54 54 53 37 32 36 48
195 197 199 195 192 187 183 184 175 180 176 188 229 228 212 209 196 185 193 184 178 179 172 162 171 164 153 155 142 123 96 76 70 78 69 64 66 54 54 60 47 35 36
213 210 207 197 201 191 185 177 173 189 185 192 199 214 213 214 214 200 199 199 187 183 186 176 169 171 168 172 148 125 106 99 88 71 75 67 64 66 59 50 58 57 46
209 214 196 174 179 162 170 177 182 199 195 225 206 208 206 205 212 221 229 210 198 189 198 197 182 185 178 173 151 140 139 124 111 104 92 89 79 72 76 72 54 52 67
178 184 182 169 168 171 182 191 192 171 195 212 222 206 195 179 179 208 249 238 205 200 203 208 196 182 187 192 180 168 179 164 154 144 126 100 99 92 76 68 67 61 51
168 172 182 172 179 184 181 168 163 157 194 208 209 200 191 187 166 151 240 253 254 231 201 211 203 193 190 203 214 195 210 183 152 168 174 166 146 128 95 69 68 66 53
156 169 180 173 179 181 177 179 195 196 213 223 205 191 195 197 189 191 213 225 232 253 231 210 213 205 203 195 214 233 251 184 192 162 182 193 192 174 158 136 83 80 79
143 155 163 163 175 178 187 200 222 227 226 229 235 201 203 202 204 214 218 222 226 240 241 227 217 215 210 203 206 209 212 218 238 208 165 179 198 200 190 169 151 121 77
141 141 149 163 164 171 193 203 225 227 214 209 201 200 198 222 221 222 217 220 227 241 241 239 217 222 220 218 210 210 206 208 212 229 192 166 186 178 184 184 185 153 127